Погода в Блуменау

Бразилия     26°57′22″S   49°05′27″W
темп.,
°C
ветер,
м/с
пор.,
м/с
влажн.,
%
обл.,
%
осадки,
мм/ч
давл.,
гПа
погр.,
м
18 января, пн
пн1800:00+22св0199100 0.9 100723
03:00+22зюз1199100 0.9 100640
06:00+22зюз119999 1.0 100831
09:00+22с0010099 4.8 101172
12:00+22ююв1399100 2.1 1012268
15:00+20в1499100 4.8 1012299
18:00+20всв14100100 10.0 1012309
21:00+19всв15100100 28.6 1015340
19 января, вт
вт1900:00+18в15100100 5.3 1016304
03:00+18с00100100 6.8 101540
06:00+18ююв0199100 0.4 101628
09:00+19юз0198100 0.6 1018148
12:00+22вюв1581100 0.2 1018622
15:00+22юв1484100 0.3 1017642
18:00+20вюв169799 0.9 1016448
21:00+19юв119995 0.9 101844
20 января, ср
ср2000:00+18ююз1199100 0.3 101846
03:00+18ююз11100100 2.4 101763
06:00+18ю11100100 6.1 101763
09:00+19ююз11100100 9.4 1018114
12:00+19ююз1199100 6.8 1017138
15:00+21св0199100 12.1 1016185
18:00+20ссв11100100 7.3 1016101
21:00+19в01100100 12.3 101831
21 января, чт
чт2100:00+19юз01100100 6.6 101834
03:00+19юв12100100 9.8 1016114
06:00+19зюз1199100 0.3 101744
09:00+20зюз1299100 1.3 1019139
12:00+20вюв1299100 2.6 1018196
15:00+23св1184100 3.1 1017507
18:00+21с1189100 0.1 1018260
21:00+19зсз1199100 0.3 101925
22 января, пт
пт2200:00+18зюз119990 0.0 101925
03:00+19ю119892 0.3 101830
06:00+19ююз1199100 0.4 101946
09:00+21юз0197100 0.4 102092
12:00+24всв129190 3.0 1019565
15:00+23в269767 15.1 1018645
18:00+22вюв1197100 5.1 101963
21:00+20ююв1299100 6.2 102058